Location: Waco, TX
(31.5480°N, 97.1670°W)
Time: 17:54:19
(UTC-05:00)

ISS - Pass Details

Date: 20 September 2018
Orbit: 403 x 408 km, 51.6° (Epoch: 23 September)

Event Time Altitude Azimuth Distance (km) Brightness Sun altitude
Rises 21:12:40 0° 240° (WSW) 2,319 0.7 -22.9°
Reaches altitude 10° 21:14:50 10° 248° (WSW) 1,462 -0.3 -23.3°
Enters shadow 21:17:41 37° 307° (NW) 647 -2.4 -23.9°
Maximum altitude 21:17:55 38° 319° (NW) 639 - -24.0°
Drops below altitude 10° 21:21:01 10° 29° (NNE) 1,467 - -24.6°
Sets 21:23:12 0° 38° (NE) 2,329 - -25.0°
